This is the latest recevied weather packets stored in our database for station/object N1HRK. If no packets are shown the sender has not sent any weather packets the latest 1 day(s).
| Time | Temp. | Humidity | Pressure | Rain* | Wind** | Luminosity | Snow |
|---|---|---|---|---|---|---|---|
| 1778041323 | 14.44° C | 82% | 1012.4 hPa | 0 mm | 5.36 m/s, 238° | - | - |
| 1778040723 | 14.44° C | 82% | 1012.3 hPa | 0 mm | 2.24 m/s, 294° | - | - |
| 1778040122 | 14.44° C | 81% | 1012.3 hPa | 0 mm | 3.13 m/s, 257° | - | - |
| 1778039554 | 15° C | 81% | 1012.3 hPa | 0 mm | 4.47 m/s, 248° | - | - |
| 1778039523 | 15° C | 81% | 1012.3 hPa | 0 mm | 4.47 m/s, 248° | - | - |
| 1778038923 | 14.44° C | 81% | 1012.3 hPa | 0 mm | 4.02 m/s, 239° | - | - |
| 1778038322 | 14.44° C | 80% | 1012.3 hPa | 0 mm | 3.13 m/s, 252° | - | - |
| 1778037723 | 14.44° C | 79% | 1012.2 hPa | 0 mm | 2.24 m/s, 212° | - | - |
| 1778037153 | 14.44° C | 78% | 1012.3 hPa | 0 mm | 2.24 m/s, 225° | - | - |
| 1778037123 | 14.44° C | 78% | 1012.4 hPa | 0 mm | 2.24 m/s, 248° | - | - |
| 1778036552 | 15° C | 76% | 1012.4 hPa | 0 mm | 2.68 m/s, 238° | - | - |
| 1778036522 | 15° C | 76% | 1012.3 hPa | 0 mm | 3.13 m/s, 245° | - | - |
| 1778035924 | 15° C | 75% | 1012.2 hPa | 0 mm | 2.68 m/s, 263° | - | - |
| 1778035353 | 14.44° C | 74% | 1012.1 hPa | 0 mm | 2.68 m/s, 257° | - | - |
| 1778035323 | 15° C | 74% | 1012 hPa | 0 mm | 3.58 m/s, 228° | - | - |
| 1778034723 | 14.44° C | 75% | 1011.9 hPa | 0 mm | 5.81 m/s, 253° | - | - |
| 1778034124 | 14.44° C | 75% | 1012 hPa | 0 mm | 2.68 m/s, 259° | - | - |
| 1778033524 | 14.44° C | 75% | 1012 hPa | 0 mm | 2.68 m/s, 245° | - | - |
| 1778032923 | 14.44° C | 75% | 1012 hPa | 0 mm | 1.79 m/s, 255° | - | - |
| 1778032324 | 14.44° C | 74% | 1012 hPa | 0 mm | 2.68 m/s, 257° | - | - |
| 1778031724 | 14.44° C | 74% | 1012 hPa | 0 mm | 2.68 m/s, 266° | - | - |
| 1778031123 | 14.44° C | 74% | 1011.9 hPa | 0 mm | 4.02 m/s, 242° | - | - |
| 1778030523 | 13.89° C | 74% | 1011.9 hPa | 0 mm | 2.24 m/s, 248° | - | - |
| 1778029923 | 13.89° C | 74% | 1011.9 hPa | 0 mm | 3.58 m/s, 253° | - | - |
| 1778029323 | 13.89° C | 73% | 1011.7 hPa | 0 mm | 3.58 m/s, 249° | - | - |
* Rain latest hour (hover to see other rain measurements)
** Current wind speed in m/s (hover to see current wind gust speed)